STARLINK-32317, 60918

Orbit data source: Space-Track

STARLINK-32317, 60918 is a payload satellite owned by SpaceX/Seattle (US) in LEO that was launched on Sat, 31 Aug 2024 UTC via an FALCON 9 launch vehicle from the Air Force Eastern Test Range (AFETR). Payload-class satellites include a variety of spacecraft equipped with specific instruments for various scientific and technological missions. These include communications satellites like Starlink; space stations such as the ISS; scientific satellites like the Hubble; Earth observation satellites from companies like Planet Labs, Umbra, and HawkEye 360; GPS; miniature CubeSats for education and research; and military/defense satellites.

Loading next visibility...
Identifier
60918, 2024-154R
Orbit
LEO
Country
Flag of USUS
Related business
Manufacturer
SpaceX/Seattle
Mission
Operational Commercial Communications
Bus & Motor
STARLINK V2M, Unknown motor
Mass
730 kg wet, ~700 kg dry
Launch date (UTC)
2024-08-31 (2 years ago)
Launch vehicle
FALCON 9
Launch site
Air Force Eastern Test Range (AFETR)
Object type
Payload
Rocket body
Debris
Shape & HBR
Box + 2 Pan, 17.7 m
Radar Cross Section
33.884 m², Large (>1 m²)

Expand to show TLE details & history
Last TLE update: 15 hours ago

TLE from 15 hours ago
0 STARLINK-32317
1 60918U 24154R   26129.90664868 -.00000393  00000-0 -11414-5 0  9990
2 60918  53.1619 359.7765 0001189  81.2579 278.8556 15.30184851 95702
Epoch: 2026-05-09T21:45Z
TLE epoch observation values (Epoch: 2026-05-09T21:45:34.445Z)
Latitude
-0.00008°
Longitude
165.66556°
Altitude
476.035 km
Speed
7.629 km/s
True Right ascension
23h 59m 06s
True Declination
0° 00' 00"
Sunlit
Object was in daylight at epoch
Visualization orbit readout
Latitude
Unknown
Longitude
Unknown
Altitude
Unknown
Speed
Unknown
Apparent Right ascension
Unknown
Apparent Declination
Unknown
Sunlit
N/A
Visualization observer readout
Local Sidereal Time
20:39:17
Azimuth
Unknown
Elevation
Unknown
Doppler factor
Unknown
Orbital elements
Apogee altitude
476.331 km
Perigee altitude
474.702 km
Semi-major axis
6,853.653 km
Eccentricity
0.00012
Inclination
53.1619°
RAAN
359.7765°
Arg. of periapsis
81.2579°
True anomaly
278.84214°
Mean anomaly
278.8556°
Eccentric anomaly
278.84887°
Mean motion
3.82525 °/min
Orbital period
94.11 mins
BSTAR
-0.0000011414
Loading maneuver chart data...
Computing Atmospheric mass density...
Loading historical data...
Loading historical data...
Loading historical data...
Loading historical data...
Loading historical data...
Loading historical data...
Loading historical data...

Documentation

Showing up to 5 results
|